Location: Phoenix
(33.4480°N, 112.0730°W)
Time: 19:36:33
(UTC-07:00)

ISS - All Passes

Search period start: 02 July 2015 00:00
Search period end: 12 July 2015 00:00
Orbit: 398 x 403 km, 51.6° (Epoch: 02 July)

Date Brightness Start Highest point End Pass type
(mag) Time Alt. Az. Time Alt. Az. Time Alt. Az.
02 Jul - 08:04:21 10° SW 08:07:33 63° SE 08:10:45 10° NE daylight
02 Jul - 09:42:32 10° WNW 09:44:15 13° NNW 09:45:53 10° N daylight
02 Jul - 14:36:06 10° N 14:37:46 13° NNE 14:39:31 10° ENE daylight
02 Jul - 16:11:16 10° NW 16:14:27 61° SW 16:17:38 10° SE daylight
03 Jul - 07:11:25 10° S 07:14:09 26° SE 07:16:56 10° ENE daylight
03 Jul - 08:47:53 10° W 08:50:33 23° NW 08:53:11 10° NNE daylight
03 Jul - 15:17:49 10° NW 15:21:00 55° NE 15:24:10 10° ESE daylight
04 Jul - 06:19:34 10° SSE 06:20:48 12° SE 06:22:10 10° ESE daylight
04 Jul - 07:53:48 10° WSW 07:56:55 45° NW 08:00:03 10° NE daylight
04 Jul - 14:24:37 10° NNW 14:27:24 26° NE 14:30:13 10° E daylight
04 Jul - 16:01:10 10° WNW 16:03:43 21° SW 16:06:13 10° S daylight
05 Jul - 07:00:11 10° SW 07:03:25 77° SE 07:06:39 10° NE daylight
05 Jul - 08:38:49 10° NW 08:40:12 12° NNW 08:41:30 10° N daylight
05 Jul - 13:31:45 10° N 13:33:42 15° NNE 13:35:42 10° ENE daylight
05 Jul - 15:07:10 10° WNW 15:10:19 49° SW 15:13:26 10° SSE daylight
06 Jul - 06:07:05 10° SSW 06:09:58 31° SE 06:12:54 10° ENE daylight
06 Jul - 07:43:54 10° W 07:46:25 20° NW 07:48:54 10° NNE daylight
06 Jul - 14:13:37 10° NW 14:16:50 67° NE 14:20:02 10° SE daylight
07 Jul - 05:14:49 10° SSE 05:16:34 14° SE 05:18:27 10° E daylight
07 Jul - 06:49:41 10° WSW 06:52:45 38° NW 06:55:48 10° NNE daylight
07 Jul - 13:20:20 10° NNW 13:23:14 30° NE 13:26:09 10° ESE daylight
07 Jul - 14:57:09 10° W 14:59:29 18° SW 15:01:44 10° S daylight
08 Jul - 05:55:56 10° SW 05:59:10 88° NW 06:02:26 10° NE daylight
08 Jul - 07:35:07 10° NW 07:36:01 11° NNW 07:36:51 10° NNW daylight
08 Jul - 12:27:20 10° N 12:29:30 17° NNE 12:31:44 10° ENE daylight
08 Jul - 14:02:59 10° WNW 14:06:03 41° SW 14:09:06 10° SSE daylight
09 Jul - 05:02:40 10° SSW 05:05:41 37° SE 05:08:44 10° ENE daylight
09 Jul - 06:39:51 10° W 06:42:11 18° NNW 06:44:29 10° NNE daylight
09 Jul - 11:35:20 10° NNE 11:35:40 10° NNE 11:36:06 10° NE daylight
09 Jul - 13:09:19 10° NW 13:12:33 80° NE 13:15:46 10° SE daylight
10 Jul - 04:10:07 10° S 04:12:14 17° SE 04:14:27 10° E visible
10 Jul - 05:45:29 10° WSW 05:48:27 33° NW 05:51:26 10° NNE daylight
10 Jul - 12:15:57 10° NNW 12:18:56 35° NE 12:21:57 10° ESE daylight
10 Jul - 13:53:06 10° W 13:55:08 15° SW 13:57:04 10° SSW daylight
11 Jul - 04:51:36 10° SW 04:54:50 74° NW 04:58:04 10° NE visible
11 Jul - 11:22:49 10° NNW 11:25:12 19° NNE 11:27:37 10° E daylight
11 Jul - 12:58:42 10° WNW 13:01:41 34° SW 13:04:38 10° SSE daylight
